Time,TemperatureF,DewpointF,PressureIn,WindDirection,WindDirectionDegrees,WindSpeedMPH,WindSpeedGustMPH,Humidity,HourlyPrecipIn,Conditions,Clouds,dailyrainin,SoftwareType,DateUTC
2013-04-25 00:01:00,32.8,31.3,29.91,West,268,0.0,3.0,94,0.00,,---,0.38,VWS V14.00,2013-04-25 05:01:00,
2013-04-25 00:06:00,32.8,31.3,29.91,West,268,0.0,0.0,94,0.00,,---,0.00,VWS V14.00,2013-04-25 05:06:00,
2013-04-25 00:11:00,32.8,31.3,29.91,West,268,0.0,0.0,94,0.00,,---,0.00,VWS V14.00,2013-04-25 05:11:00,
2013-04-25 00:16:00,32.8,31.3,29.91,West,268,0.0,0.0,94,0.00,,---,0.00,VWS V14.00,2013-04-25 05:16:00,
2013-04-25 00:21:00,32.7,31.2,29.91,West,268,0.0,0.0,94,0.00,,---,0.00,VWS V14.00,2013-04-25 05:21:00,
2013-04-25 00:26:00,32.7,31.2,29.91,West,268,0.0,0.0,94,0.00,,---,0.00,VWS V14.00,2013-04-25 05:26:00,
2013-04-25 00:31:00,32.7,31.2,29.91,West,268,0.0,1.0,94,0.00,,---,0.00,VWS V14.00,2013-04-25 05:31:00,
2013-04-25 00:36:00,32.6,31.1,29.91,West,268,0.0,0.0,94,0.00,,---,0.00,VWS V14.00,2013-04-25 05:36:00,
2013-04-25 00:41:00,32.6,31.3,29.91,West,275,0.0,3.0,95,0.00,,---,0.00,VWS V14.00,2013-04-25 05:41:00,
2013-04-25 00:46:00,32.6,31.3,29.91,West,275,1.0,3.0,95,0.00,,---,0.00,VWS V14.00,2013-04-25 05:46:00,
2013-04-25 00:51:00,32.6,31.3,29.91,SW,230,0.0,4.0,95,0.00,,---,0.00,VWS V14.00,2013-04-25 05:51:00,
2013-04-25 00:56:00,32.6,31.3,29.91,SW,230,0.0,4.0,95,0.00,,---,0.00,VWS V14.00,2013-04-25 05:56:00,
2013-04-25 01:01:00,32.6,31.3,29.91,WNW,294,0.0,4.0,95,0.00,,---,0.00,VWS V14.00,2013-04-25 06:01:00,
2013-04-25 01:06:00,32.5,31.2,29.91,West,273,3.0,5.0,95,0.00,,---,0.00,VWS V14.00,2013-04-25 06:06:00,
2013-04-25 01:11:00,32.5,31.0,29.91,West,269,0.0,5.0,94,0.00,,---,0.00,VWS V14.00,2013-04-25 06:11:00,
2013-04-25 01:16:00,32.4,30.9,29.91,SW,232,4.0,6.0,94,0.00,,---,0.00,VWS V14.00,2013-04-25 06:16:00,
2013-04-25 01:21:00,32.3,30.8,29.91,SW,225,3.0,3.0,94,0.00,,---,0.00,VWS V14.00,2013-04-25 06:21:00,
2013-04-25 01:26:00,32.3,30.8,29.91,SW,227,3.0,4.0,94,0.00,,---,0.00,VWS V14.00,2013-04-25 06:26:00,
2013-04-25 01:31:00,32.3,30.5,29.91,SW,236,1.0,4.0,93,0.00,,---,0.00,VWS V14.00,2013-04-25 06:31:00,
2013-04-25 01:36:00,32.3,30.8,29.91,West,260,0.0,2.0,94,0.00,,---,0.00,VWS V14.00,2013-04-25 06:36:00,
2013-04-25 01:41:00,32.3,30.5,29.91,WSW,249,0.0,3.0,93,0.00,,---,0.00,VWS V14.00,2013-04-25 06:41:00,
2013-04-25 01:46:00,32.3,30.5,29.91,WSW,249,0.0,3.0,93,0.00,,---,0.00,VWS V14.00,2013-04-25 06:46:00,
2013-04-25 01:51:00,32.3,30.5,29.91,WSW,249,0.0,1.0,93,0.00,,---,0.00,VWS V14.00,2013-04-25 06:51:00,
2013-04-25 01:56:00,32.2,30.4,29.91,WSW,250,1.0,3.0,93,0.00,,---,0.00,VWS V14.00,2013-04-25 06:56:00,
2013-04-25 02:01:00,32.2,30.4,29.91,WSW,250,0.0,3.0,93,0.00,,---,0.00,VWS V14.00,2013-04-25 07:01:00,
2013-04-25 02:06:00,32.2,30.4,29.91,SW,234,1.0,3.0,93,0.00,,---,0.00,VWS V14.00,2013-04-25 07:06:00,
2013-04-25 02:11:00,32.2,30.7,29.91,WSW,256,0.0,3.0,94,0.00,,---,0.00,VWS V14.00,2013-04-25 07:11:00,
2013-04-25 02:16:00,32.1,30.6,29.91,WSW,253,1.0,3.0,94,0.00,,---,0.00,VWS V14.00,2013-04-25 07:16:00,
2013-04-25 02:21:00,32.1,30.6,29.91,West,260,2.0,3.0,94,0.00,,---,0.00,VWS V14.00,2013-04-25 07:21:00,
2013-04-25 02:26:00,32.1,30.6,29.91,SW,223,2.0,5.0,94,0.00,,---,0.00,VWS V14.00,2013-04-25 07:26:00,
2013-04-25 02:31:00,32.1,30.6,29.91,WSW,238,0.0,5.0,94,0.00,,---,0.00,VWS V14.00,2013-04-25 07:31:00,
2013-04-25 02:36:00,32.1,30.6,29.91,WSW,239,0.0,2.0,94,0.00,,---,0.00,VWS V14.00,2013-04-25 07:36:00,
2013-04-25 02:41:00,32.1,30.6,29.91,NW,305,0.0,2.0,94,0.00,,---,0.00,VWS V14.00,2013-04-25 07:41:00,
2013-04-25 02:46:00,32.1,30.6,29.91,NW,305,2.0,2.0,94,0.00,,---,0.00,VWS V14.00,2013-04-25 07:46:00,
2013-04-25 02:51:00,32.1,30.6,29.91,WSW,257,2.0,4.0,94,0.00,,---,0.00,VWS V14.00,2013-04-25 07:51:00,
2013-04-25 02:56:00,32.1,30.6,29.91,West,266,0.0,4.0,94,0.00,,---,0.00,VWS V14.00,2013-04-25 07:56:00,
2013-04-25 03:01:00,32.1,30.6,29.91,West,266,1.0,4.0,94,0.00,,---,0.00,VWS V14.00,2013-04-25 08:01:00,
2013-04-25 03:06:00,32.1,30.6,29.92,West,266,0.0,1.0,94,0.00,,---,0.00,VWS V14.00,2013-04-25 08:06:00,
2013-04-25 03:11:00,32.1,30.6,29.92,West,281,0.0,4.0,94,0.00,,---,0.00,VWS V14.00,2013-04-25 08:11:00,
2013-04-25 03:16:00,32.0,30.5,29.92,West,271,0.0,5.0,94,0.00,,---,0.00,VWS V14.00,2013-04-25 08:16:00,
2013-04-25 03:21:00,31.9,30.1,29.93,West,270,0.0,3.0,93,0.00,,---,0.00,VWS V14.00,2013-04-25 08:21:00,
2013-04-25 03:26:00,31.9,30.1,29.93,West,266,1.0,3.0,93,0.00,,---,0.00,VWS V14.00,2013-04-25 08:26:00,
2013-04-25 03:31:00,31.9,30.1,29.93,SW,229,0.0,5.0,93,0.00,,---,0.00,VWS V14.00,2013-04-25 08:31:00,
2013-04-25 03:36:00,31.8,30.0,29.93,SW,223,0.0,0.0,93,0.00,,---,0.00,VWS V14.00,2013-04-25 08:36:00,
2013-04-25 03:41:00,31.7,29.9,29.93,WSW,242,0.0,2.0,93,0.00,,---,0.00,VWS V14.00,2013-04-25 08:41:00,
2013-04-25 03:46:00,31.6,29.8,29.93,WSW,243,1.0,3.0,93,0.00,,---,0.00,VWS V14.00,2013-04-25 08:46:00,
2013-04-25 03:51:00,31.5,29.7,29.93,WSW,249,0.0,2.0,93,0.00,,---,0.00,VWS V14.00,2013-04-25 08:51:00,
2013-04-25 03:56:00,31.4,29.6,29.94,WSW,240,0.0,5.0,93,0.00,,---,0.00,VWS V14.00,2013-04-25 08:56:00,
2013-04-25 04:01:00,31.3,29.5,29.94,WSW,240,0.0,5.0,93,0.00,,---,0.00,VWS V14.00,2013-04-25 09:01:00,
2013-04-25 04:06:00,31.3,29.5,29.94,WSW,240,0.0,0.0,93,0.00,,---,0.00,VWS V14.00,2013-04-25 09:06:00,
2013-04-25 04:11:00,31.2,29.7,29.94,WSW,240,0.0,0.0,94,0.00,,---,0.00,VWS V14.00,2013-04-25 09:11:00,
2013-04-25 04:16:00,31.2,29.7,29.94,WSW,240,0.0,2.0,94,0.00,,---,0.00,VWS V14.00,2013-04-25 09:16:00,
2013-04-25 04:21:00,31.2,29.7,29.95,WSW,240,0.0,0.0,94,0.00,,---,0.00,VWS V14.00,2013-04-25 09:21:00,
2013-04-25 04:26:00,31.1,29.3,29.95,WSW,240,0.0,2.0,93,0.00,,---,0.00,VWS V14.00,2013-04-25 09:26:00,
2013-04-25 04:31:00,31.1,29.3,29.95,SW,236,0.0,3.0,93,0.00,,---,0.00,VWS V14.00,2013-04-25 09:31:00,
2013-04-25 04:36:00,31.0,29.5,29.95,SW,236,0.0,2.0,94,0.00,,---,0.00,VWS V14.00,2013-04-25 09:36:00,
2013-04-25 04:41:00,31.0,29.5,29.95,SW,236,0.0,2.0,94,0.00,,---,0.00,VWS V14.00,2013-04-25 09:41:00,
2013-04-25 04:46:00,30.8,29.3,29.95,SW,236,0.0,2.0,94,0.00,,---,0.00,VWS V14.00,2013-04-25 09:46:00,
2013-04-25 04:51:00,30.7,29.2,29.95,SW,236,0.0,0.0,94,0.00,,---,0.00,VWS V14.00,2013-04-25 09:51:00,
2013-04-25 04:56:00,30.6,28.8,29.95,SW,236,0.0,0.0,93,0.00,,---,0.00,VWS V14.00,2013-04-25 09:56:00,
2013-04-25 05:01:00,30.4,28.6,29.95,SW,236,0.0,2.0,93,0.00,,---,0.00,VWS V14.00,2013-04-25 10:01:00,
2013-04-25 05:06:00,30.2,28.7,29.95,WSW,240,0.0,0.0,94,0.00,,---,0.00,VWS V14.00,2013-04-25 10:06:00,
2013-04-25 05:11:00,30.1,28.6,29.95,WSW,240,0.0,0.0,94,0.00,,---,0.00,VWS V14.00,2013-04-25 10:11:00,
2013-04-25 05:16:00,30.0,28.5,29.95,WSW,240,0.0,1.0,94,0.00,,---,0.00,VWS V14.00,2013-04-25 10:16:00,
2013-04-25 05:21:00,29.9,28.4,29.95,WSW,240,0.0,1.0,94,0.00,,---,0.00,VWS V14.00,2013-04-25 10:21:00,
2013-04-25 05:26:00,29.9,28.4,29.96,WSW,241,0.0,3.0,94,0.00,,---,0.00,VWS V14.00,2013-04-25 10:26:00,
2013-04-25 05:31:00,29.8,28.3,29.96,WSW,241,0.0,3.0,94,0.00,,---,0.00,VWS V14.00,2013-04-25 10:31:00,
2013-04-25 05:36:00,29.8,28.3,29.96,WSW,241,0.0,1.0,94,0.00,,---,0.00,VWS V14.00,2013-04-25 10:36:00,
2013-04-25 05:41:00,29.8,28.3,29.97,WSW,240,2.0,3.0,94,0.00,,---,0.00,VWS V14.00,2013-04-25 10:41:00,
2013-04-25 05:46:00,29.7,28.2,29.97,WSW,239,0.0,3.0,94,0.00,,---,0.00,VWS V14.00,2013-04-25 10:46:00,
2013-04-25 05:51:00,29.7,28.2,29.97,WSW,239,0.0,2.0,94,0.00,,---,0.00,VWS V14.00,2013-04-25 10:51:00,
2013-04-25 05:56:00,29.6,28.1,29.97,WSW,239,0.0,3.0,94,0.00,,---,0.00,VWS V14.00,2013-04-25 10:56:00,
2013-04-25 06:01:00,29.6,28.1,29.97,WSW,248,1.0,3.0,94,0.00,,---,0.00,VWS V14.00,2013-04-25 11:01:00,
2013-04-25 06:06:00,29.5,28.0,29.97,WSW,248,0.0,0.0,94,0.00,,---,0.00,VWS V14.00,2013-04-25 11:06:00,
2013-04-25 06:11:00,29.4,27.9,29.98,WSW,247,1.0,2.0,94,0.00,,---,0.00,VWS V14.00,2013-04-25 11:11:00,
2013-04-25 06:16:00,29.4,27.9,29.98,WSW,247,0.0,2.0,94,0.00,,---,0.00,VWS V14.00,2013-04-25 11:16:00,
2013-04-25 06:21:00,29.3,27.8,29.98,WSW,247,0.0,2.0,94,0.00,,---,0.00,VWS V14.00,2013-04-25 11:21:00,
2013-04-25 06:26:00,29.3,27.8,29.98,WSW,247,0.0,2.0,94,0.00,,---,0.00,VWS V14.00,2013-04-25 11:26:00,
2013-04-25 06:31:00,29.3,27.8,29.99,WSW,247,0.0,2.0,94,0.00,,---,0.00,VWS V14.00,2013-04-25 11:31:00,
2013-04-25 06:39:00,29.4,28.1,29.99,WSW,247,0.0,1.0,95,0.00,,---,0.00,VWS V14.00,2013-04-25 11:39:00,
2013-04-25 06:44:00,29.4,28.1,29.99,WSW,247,1.0,3.0,95,0.00,,---,0.00,VWS V14.00,2013-04-25 11:44:00,
2013-04-25 06:49:00,29.5,28.2,29.99,WSW,247,0.0,0.0,95,0.00,,---,0.00,VWS V14.00,2013-04-25 11:49:00,
2013-04-25 06:54:00,29.6,28.4,30.00,WSW,246,0.0,3.0,95,0.00,,---,0.00,VWS V14.00,2013-04-25 11:54:00,
2013-04-25 06:59:00,29.7,28.5,30.00,SW,236,2.0,4.0,95,0.00,,---,0.00,VWS V14.00,2013-04-25 11:59:00,
2013-04-25 07:04:00,29.8,28.5,30.00,WSW,248,0.0,0.0,95,0.00,,---,0.00,VWS V14.00,2013-04-25 12:04:00,
2013-04-25 07:09:00,29.9,28.6,30.00,WSW,248,0.0,3.0,95,0.00,,---,0.00,VWS V14.00,2013-04-25 12:09:00,
2013-04-25 07:14:00,30.0,28.7,30.00,WSW,248,0.0,3.0,95,0.00,,---,0.00,VWS V14.00,2013-04-25 12:14:00,
2013-04-25 07:19:00,30.1,28.8,30.01,West,273,0.0,0.0,95,0.00,,---,0.00,VWS V14.00,2013-04-25 12:19:00,
2013-04-25 07:24:00,30.3,29.0,30.01,West,277,2.0,3.0,95,0.00,,---,0.00,VWS V14.00,2013-04-25 12:24:00,
2013-04-25 07:29:00,30.5,29.0,30.01,West,270,3.0,5.0,94,0.00,,---,0.00,VWS V14.00,2013-04-25 12:29:00,
2013-04-25 07:34:00,30.6,29.1,30.02,WSW,252,0.0,3.0,94,0.00,,---,0.00,VWS V14.00,2013-04-25 12:34:00,
2013-04-25 07:39:00,30.7,29.2,30.02,South,189,3.0,5.0,94,0.00,,---,0.00,VWS V14.00,2013-04-25 12:39:00,
2013-04-25 07:44:00,30.9,29.1,30.02,WSW,247,4.0,5.0,93,0.00,,---,0.00,VWS V14.00,2013-04-25 12:44:00,
2013-04-25 07:49:00,31.0,29.2,30.02,WSW,243,2.0,4.0,93,0.00,,---,0.00,VWS V14.00,2013-04-25 12:49:00,
2013-04-25 07:54:00,31.2,29.4,30.02,SW,232,0.0,4.0,93,0.00,,---,0.00,VWS V14.00,2013-04-25 12:54:00,
2013-04-25 07:59:00,31.4,29.6,30.03,WSW,245,1.0,5.0,93,0.00,,---,0.00,VWS V14.00,2013-04-25 12:59:00,
2013-04-25 08:04:00,31.6,29.5,30.03,West,276,3.0,5.0,92,0.00,,---,0.00,VWS V14.00,2013-04-25 13:04:00,
2013-04-25 08:09:00,31.9,29.8,30.03,West,274,1.0,5.0,92,0.00,,---,0.00,VWS V14.00,2013-04-25 13:09:00,
2013-04-25 08:14:00,32.2,30.1,30.03,SW,230,0.0,5.0,92,0.00,,---,0.00,VWS V14.00,2013-04-25 13:14:00,
2013-04-25 08:19:00,32.5,30.2,30.04,WSW,244,0.0,1.0,91,0.00,,---,0.00,VWS V14.00,2013-04-25 13:19:00,
2013-04-25 08:24:00,32.8,30.5,30.04,WSW,244,0.0,3.0,91,0.00,,---,0.00,VWS V14.00,2013-04-25 13:24:00,
2013-04-25 08:29:00,33.0,30.4,30.04,SW,235,0.0,3.0,90,0.00,,---,0.00,VWS V14.00,2013-04-25 13:29:00,
2013-04-25 08:34:00,33.2,30.3,30.04,WSW,242,1.0,2.0,89,0.00,,---,0.00,VWS V14.00,2013-04-25 13:34:00,
2013-04-25 08:39:00,33.5,30.6,30.04,WSW,256,0.0,6.0,89,0.00,,---,0.00,VWS V14.00,2013-04-25 13:39:00,
2013-04-25 08:44:00,33.8,30.6,30.04,SSW,200,2.0,6.0,88,0.00,,---,0.00,VWS V14.00,2013-04-25 13:44:00,
2013-04-25 08:49:00,34.0,30.8,30.05,West,269,1.0,2.0,88,0.00,,---,0.00,VWS V14.00,2013-04-25 13:49:00,
2013-04-25 08:54:00,34.3,30.8,30.05,SW,227,2.0,6.0,87,0.00,,---,0.00,VWS V14.00,2013-04-25 13:54:00,
2013-04-25 08:59:00,34.6,30.3,30.05,SSW,203,5.0,11.0,84,0.00,,---,0.00,VWS V14.00,2013-04-25 13:59:00,
2013-04-25 09:05:00,35.0,30.7,30.05,WSW,255,0.0,7.0,84,0.00,,---,0.00,VWS V14.00,2013-04-25 14:05:00,
2013-04-25 09:10:00,35.2,30.9,30.05,SW,228,2.0,7.0,84,0.00,,---,0.00,VWS V14.00,2013-04-25 14:10:00,
2013-04-25 09:15:00,35.5,30.9,30.05,SW,233,1.0,7.0,83,0.00,,---,0.00,VWS V14.00,2013-04-25 14:15:00,
2013-04-25 09:20:00,35.6,31.0,30.06,South,171,5.0,7.0,83,0.00,,---,0.00,VWS V14.00,2013-04-25 14:20:00,
2013-04-25 09:25:00,35.9,31.0,30.05,WSW,255,4.0,7.0,82,0.00,,---,0.00,VWS V14.00,2013-04-25 14:25:00,
2013-04-25 09:29:00,36.0,29.8,30.06,WSW,248,4.0,9.0,78,0.00,,---,0.00,VWS V14.00,2013-04-25 14:29:00,
2013-04-25 09:34:00,36.2,30.3,30.06,SE,142,1.0,3.0,79,0.00,,---,0.00,VWS V14.00,2013-04-25 14:34:00,
2013-04-25 09:39:00,36.4,29.9,30.07,NW,324,2.0,9.0,77,0.00,,---,0.00,VWS V14.00,2013-04-25 14:39:00,
2013-04-25 09:44:00,36.6,30.1,30.07,WNW,303,5.0,9.0,77,0.00,,---,0.00,VWS V14.00,2013-04-25 14:44:00,
2013-04-25 09:49:00,37.1,30.2,30.07,West,267,4.0,6.0,76,0.00,,---,0.00,VWS V14.00,2013-04-25 14:49:00,
2013-04-25 09:54:00,37.3,29.8,30.07,West,271,3.0,6.0,74,0.00,,---,0.00,VWS V14.00,2013-04-25 14:54:00,
2013-04-25 10:00:00,37.5,29.6,30.07,WNW,286,1.0,6.0,73,0.00,,---,0.00,VWS V14.00,2013-04-25 15:00:00,
2013-04-25 10:05:00,37.5,29.6,30.07,WSW,257,3.0,6.0,73,0.00,,---,0.00,VWS V14.00,2013-04-25 15:05:00,
2013-04-25 10:09:00,37.4,29.5,30.08,WSW,243,3.0,6.0,73,0.00,,---,0.00,VWS V14.00,2013-04-25 15:09:00,
2013-04-25 10:15:00,37.8,29.9,30.07,WSW,241,2.0,6.0,73,0.00,,---,0.00,VWS V14.00,2013-04-25 15:15:00,
2013-04-25 10:19:00,38.1,29.2,30.08,West,259,2.0,4.0,70,0.00,,---,0.00,VWS V14.00,2013-04-25 15:19:00,
2013-04-25 10:24:00,38.3,29.4,30.08,WNW,284,2.0,5.0,70,0.00,,---,0.01,VWS V14.00,2013-04-25 15:24:00,
2013-04-25 10:29:00,38.3,29.4,30.08,West,279,2.0,5.0,70,0.00,,---,0.01,VWS V14.00,2013-04-25 15:29:00,
2013-04-25 10:34:00,38.2,28.9,30.08,West,270,2.0,6.0,69,0.07,,---,0.02,VWS V14.00,2013-04-25 15:34:00,
2013-04-25 10:39:00,38.2,28.9,30.08,SW,236,2.0,10.0,69,0.08,,---,0.03,VWS V14.00,2013-04-25 15:39:00,
2013-04-25 10:44:00,38.2,28.9,30.08,West,279,5.0,10.0,69,0.08,,---,0.03,VWS V14.00,2013-04-25 15:44:00,
2013-04-25 10:49:00,38.1,29.2,30.08,West,265,1.0,6.0,70,0.06,,---,0.04,VWS V14.00,2013-04-25 15:49:00,
2013-04-25 10:54:00,38.4,29.1,30.08,WSW,237,2.0,6.0,69,0.06,,---,0.04,VWS V14.00,2013-04-25 15:54:00,
2013-04-25 10:59:00,38.6,29.0,30.08,SW,220,5.0,11.0,68,0.06,,---,0.04,VWS V14.00,2013-04-25 15:59:00,
2013-04-25 11:04:00,38.7,28.7,30.09,SW,216,1.0,10.0,67,0.04,,---,0.04,VWS V14.00,2013-04-25 16:04:00,
2013-04-25 11:09:00,39.3,28.9,30.09,SSE,163,9.0,10.0,66,0.00,,---,0.04,VWS V14.00,2013-04-25 16:09:00,
2013-04-25 11:14:00,39.2,28.8,30.09,WSW,250,5.0,11.0,66,0.00,,---,0.04,VWS V14.00,2013-04-25 16:14:00,
2013-04-25 11:19:00,39.2,28.8,30.10,South,171,2.0,4.0,66,0.00,,---,0.04,VWS V14.00,2013-04-25 16:19:00,
2013-04-25 11:24:00,39.9,29.1,30.09,SW,235,1.0,9.0,65,0.00,,---,0.04,VWS V14.00,2013-04-25 16:24:00,
2013-04-25 11:29:00,40.3,27.9,30.09,SW,235,6.0,9.0,61,0.00,,---,0.04,VWS V14.00,2013-04-25 16:29:00,
2013-04-25 11:34:00,40.6,28.2,30.09,SSE,157,6.0,9.0,61,0.00,,---,0.04,VWS V14.00,2013-04-25 16:34:00,
2013-04-25 11:39:00,41.0,28.6,30.09,SW,214,6.0,10.0,61,0.00,,---,0.04,VWS V14.00,2013-04-25 16:39:00,
2013-04-25 11:44:00,40.9,28.1,30.09,WNW,284,8.0,11.0,60,0.00,,---,0.04,VWS V14.00,2013-04-25 16:44:00,
2013-04-25 11:49:00,40.4,25.5,30.10,WSW,257,4.0,7.0,55,0.00,,---,0.04,VWS V14.00,2013-04-25 16:49:00,
2013-04-25 11:54:00,40.5,27.7,30.10,South,188,7.0,10.0,60,0.00,,---,0.04,VWS V14.00,2013-04-25 16:54:00,
2013-04-25 11:59:00,41.1,29.1,30.10,West,265,10.0,12.0,62,0.00,,---,0.04,VWS V14.00,2013-04-25 16:59:00,
2013-04-25 12:04:00,41.3,27.2,30.10,SW,229,7.0,11.0,57,0.00,,---,0.04,VWS V14.00,2013-04-25 17:04:00,
2013-04-25 12:09:00,40.7,26.7,30.11,SW,223,3.0,12.0,57,0.00,,---,0.04,VWS V14.00,2013-04-25 17:09:00,
2013-04-25 12:14:00,40.5,26.5,30.11,SW,223,2.0,12.0,57,0.00,,---,0.04,VWS V14.00,2013-04-25 17:14:00,
2013-04-25 12:19:00,40.5,26.5,30.11,SSE,163,7.0,7.0,57,0.00,,---,0.04,VWS V14.00,2013-04-25 17:19:00,
2013-04-25 12:25:00,40.6,27.0,30.11,SW,234,3.0,8.0,58,0.00,,---,0.04,VWS V14.00,2013-04-25 17:25:00,
2013-04-25 12:30:00,40.8,25.9,30.11,West,259,4.0,13.0,55,0.00,,---,0.04,VWS V14.00,2013-04-25 17:30:00,
2013-04-25 12:35:00,40.6,25.7,30.11,South,178,3.0,7.0,55,0.00,,---,0.04,VWS V14.00,2013-04-25 17:35:00,
2013-04-25 12:40:00,40.7,26.7,30.11,West,274,0.0,7.0,57,0.00,,---,0.04,VWS V14.00,2013-04-25 17:40:00,
2013-04-25 12:45:00,41.4,26.0,30.11,SSE,166,4.0,7.0,54,0.00,,---,0.04,VWS V14.00,2013-04-25 17:45:00,
2013-04-25 12:50:00,41.5,26.1,30.11,SW,234,3.0,6.0,54,0.00,,---,0.04,VWS V14.00,2013-04-25 17:50:00,
2013-04-25 12:55:00,41.8,25.9,30.11,NE,49,3.0,8.0,53,0.00,,---,0.04,VWS V14.00,2013-04-25 17:55:00,
2013-04-25 13:00:00,42.7,26.3,30.11,South,169,6.0,9.0,52,0.00,,---,0.04,VWS V14.00,2013-04-25 18:00:00,
2013-04-25 13:05:00,42.7,26.3,30.11,SW,227,2.0,7.0,52,0.00,,---,0.04,VWS V14.00,2013-04-25 18:05:00,
2013-04-25 13:10:00,42.7,24.9,30.11,SW,219,3.0,9.0,49,0.00,,---,0.04,VWS V14.00,2013-04-25 18:10:00,
2013-04-25 13:15:00,43.0,25.6,30.11,SSE,167,8.0,11.0,50,0.00,,---,0.04,VWS V14.00,2013-04-25 18:15:00,
2013-04-25 13:20:00,43.4,25.5,30.11,SSW,204,4.0,11.0,49,0.00,,---,0.04,VWS V14.00,2013-04-25 18:20:00,
2013-04-25 13:25:00,43.5,25.6,30.11,SW,215,3.0,11.0,49,0.00,,---,0.04,VWS V14.00,2013-04-25 18:25:00,
2013-04-25 13:30:00,43.7,25.8,30.11,SW,220,3.0,11.0,49,0.00,,---,0.04,VWS V14.00,2013-04-25 18:30:00,
2013-04-25 13:35:00,43.7,25.3,30.11,WSW,245,4.0,9.0,48,0.00,,---,0.04,VWS V14.00,2013-04-25 18:35:00,
2013-04-25 13:40:00,43.5,25.6,30.12,SW,215,4.0,11.0,49,0.00,,---,0.04,VWS V14.00,2013-04-25 18:40:00,
2013-04-25 13:45:00,43.6,24.7,30.12,SW,233,4.0,13.0,47,0.00,,---,0.04,VWS V14.00,2013-04-25 18:45:00,
2013-04-25 13:50:00,43.6,23.7,30.12,SSW,209,4.0,11.0,45,0.00,,---,0.04,VWS V14.00,2013-04-25 18:50:00,
2013-04-25 13:55:00,43.1,24.3,30.12,SSE,157,2.0,11.0,47,0.00,,---,0.04,VWS V14.00,2013-04-25 18:55:00,
2013-04-25 14:00:00,43.2,24.9,30.12,West,260,3.0,11.0,48,0.00,,---,0.04,VWS V14.00,2013-04-25 19:00:00,
2013-04-25 14:05:00,43.4,24.5,30.12,South,185,6.0,7.0,47,0.00,,---,0.04,VWS V14.00,2013-04-25 19:05:00,
2013-04-25 14:10:00,43.5,24.6,30.12,West,264,5.0,11.0,47,0.00,,---,0.04,VWS V14.00,2013-04-25 19:10:00,
2013-04-25 14:15:00,43.8,23.3,30.12,WNW,286,7.0,11.0,44,0.00,,---,0.04,VWS V14.00,2013-04-25 19:15:00,
2013-04-25 14:20:00,44.0,23.5,30.12,West,265,2.0,7.0,44,0.00,,---,0.04,VWS V14.00,2013-04-25 19:20:00,
2013-04-25 14:25:00,44.2,23.1,30.12,South,191,8.0,11.0,43,0.00,,---,0.04,VWS V14.00,2013-04-25 19:25:00,
2013-04-25 14:30:00,43.9,23.4,30.13,South,190,2.0,13.0,44,0.00,,---,0.04,VWS V14.00,2013-04-25 19:30:00,
2013-04-25 14:35:00,43.7,23.8,30.13,South,186,5.0,5.0,45,0.00,,---,0.04,VWS V14.00,2013-04-25 19:35:00,
2013-04-25 14:40:00,44.1,23.6,30.12,WSW,254,6.0,11.0,44,0.00,,---,0.04,VWS V14.00,2013-04-25 19:40:00,
2013-04-25 14:45:00,44.1,23.0,30.12,SE,129,5.0,13.0,43,0.00,,---,0.04,VWS V14.00,2013-04-25 19:45:00,
2013-04-25 14:50:00,43.9,23.4,30.12,South,185,5.0,16.0,44,0.00,,---,0.04,VWS V14.00,2013-04-25 19:50:00,
2013-04-25 14:55:00,43.9,24.0,30.12,West,265,6.0,16.0,45,0.00,,---,0.04,VWS V14.00,2013-04-25 19:55:00,
2013-04-25 15:00:00,44.0,24.0,30.12,WNW,289,0.0,16.0,45,0.00,,---,0.04,VWS V14.00,2013-04-25 20:00:00,
2013-04-25 15:05:00,44.0,23.5,30.12,South,179,1.0,6.0,44,0.00,,---,0.04,VWS V14.00,2013-04-25 20:05:00,
2013-04-25 15:10:00,43.8,24.4,30.12,NW,311,2.0,13.0,46,0.00,,---,0.04,VWS V14.00,2013-04-25 20:10:00,
2013-04-25 15:15:00,44.2,22.6,30.12,SW,232,3.0,13.0,42,0.00,,---,0.04,VWS V14.00,2013-04-25 20:15:00,
2013-04-25 15:20:00,44.5,23.4,30.12,SW,217,3.0,9.0,43,0.00,,---,0.04,VWS V14.00,2013-04-25 20:20:00,
2013-04-25 15:25:00,44.5,23.4,30.12,South,173,6.0,14.0,43,0.00,,---,0.04,VWS V14.00,2013-04-25 20:25:00,
2013-04-25 15:31:00,44.3,23.8,30.12,SW,227,4.0,14.0,44,0.00,,---,0.04,VWS V14.00,2013-04-25 20:31:00,
2013-04-25 15:36:00,44.5,24.0,30.12,South,176,3.0,10.0,44,0.00,,---,0.04,VWS V14.00,2013-04-25 20:36:00,
2013-04-25 15:41:00,44.8,23.7,30.12,SSE,148,10.0,13.0,43,0.00,,---,0.04,VWS V14.00,2013-04-25 20:41:00,
2013-04-25 15:46:00,44.7,24.1,30.12,SSE,153,5.0,13.0,44,0.00,,---,0.04,VWS V14.00,2013-04-25 20:46:00,
2013-04-25 15:51:00,44.9,22.6,30.12,SSW,209,3.0,7.0,41,0.00,,---,0.04,VWS V14.00,2013-04-25 20:51:00,
2013-04-25 15:56:00,45.1,23.4,30.11,SSE,148,1.0,10.0,42,0.00,,---,0.04,VWS V14.00,2013-04-25 20:56:00,
2013-04-25 16:01:00,45.2,24.0,30.11,SSW,205,8.0,10.0,43,0.00,,---,0.04,VWS V14.00,2013-04-25 21:01:00,
2013-04-25 16:06:00,45.1,24.5,30.12,WSW,242,0.0,9.0,44,0.00,,---,0.04,VWS V14.00,2013-04-25 21:06:00,
2013-04-25 16:11:00,45.3,23.6,30.12,South,178,1.0,9.0,42,0.00,,---,0.04,VWS V14.00,2013-04-25 21:11:00,
2013-04-25 16:16:00,45.2,23.5,30.12,West,273,4.0,11.0,42,0.00,,---,0.04,VWS V14.00,2013-04-25 21:16:00,
2013-04-25 16:21:00,45.1,22.8,30.12,SSW,212,5.0,10.0,41,0.00,,---,0.04,VWS V14.00,2013-04-25 21:21:00,
2013-04-25 16:26:00,45.0,23.3,30.12,SE,136,6.0,12.0,42,0.00,,---,0.04,VWS V14.00,2013-04-25 21:26:00,
2013-04-25 16:31:00,44.8,22.5,30.12,ESE,112,5.0,12.0,41,0.00,,---,0.04,VWS V14.00,2013-04-25 21:31:00,
2013-04-25 16:36:00,44.8,23.1,30.12,SSE,160,3.0,8.0,42,0.00,,---,0.04,VWS V14.00,2013-04-25 21:36:00,
2013-04-25 16:41:00,44.9,22.6,30.12,WSW,252,6.0,9.0,41,0.00,,---,0.04,VWS V14.00,2013-04-25 21:41:00,
2013-04-25 16:46:00,45.2,22.3,30.12,SSW,207,5.0,10.0,40,0.00,,---,0.04,VWS V14.00,2013-04-25 21:46:00,
2013-04-25 16:51:00,45.2,22.3,30.12,SSW,203,7.0,7.0,40,0.00,,---,0.04,VWS V14.00,2013-04-25 21:51:00,
2013-04-25 16:56:00,45.3,21.8,30.12,SE,136,11.0,12.0,39,0.00,,---,0.04,VWS V14.00,2013-04-25 21:56:00,
2013-04-25 17:01:00,45.2,22.3,30.12,SSE,162,9.0,12.0,40,0.00,,---,0.04,VWS V14.00,2013-04-25 22:01:00,
2013-04-25 17:06:00,45.2,22.3,30.12,SW,225,4.0,7.0,40,0.00,,---,0.04,VWS V14.00,2013-04-25 22:06:00,
2013-04-25 17:11:00,45.4,21.3,30.13,SSE,153,9.0,11.0,38,0.00,,---,0.04,VWS V14.00,2013-04-25 22:11:00,
2013-04-25 17:16:00,45.5,21.4,30.13,SSW,208,0.0,11.0,38,0.00,,---,0.04,VWS V14.00,2013-04-25 22:16:00,
2013-04-25 17:21:00,45.7,20.3,30.13,West,281,2.0,7.0,36,0.00,,---,0.04,VWS V14.00,2013-04-25 22:21:00,
2013-04-25 17:26:00,46.0,21.2,30.13,West,265,0.0,8.0,37,0.00,,---,0.04,VWS V14.00,2013-04-25 22:26:00,
2013-04-25 17:31:00,45.7,21.6,30.13,SSW,200,6.0,10.0,38,0.00,,---,0.04,VWS V14.00,2013-04-25 22:31:00,
2013-04-25 17:36:00,45.6,21.5,30.13,South,178,0.0,4.0,38,0.00,,---,0.04,VWS V14.00,2013-04-25 22:36:00,
2013-04-25 17:41:00,45.6,21.5,30.13,East,94,0.0,6.0,38,0.00,,---,0.04,VWS V14.00,2013-04-25 22:41:00,
2013-04-25 17:46:00,45.6,21.5,30.13,South,179,3.0,7.0,38,0.00,,---,0.04,VWS V14.00,2013-04-25 22:46:00,
2013-04-25 17:51:00,45.5,21.4,30.13,SW,232,4.0,9.0,38,0.00,,---,0.04,VWS V14.00,2013-04-25 22:51:00,
2013-04-25 17:56:00,45.5,21.4,30.13,WSW,254,2.0,9.0,38,0.00,,---,0.04,VWS V14.00,2013-04-25 22:56:00,
2013-04-25 18:01:00,45.4,21.3,30.13,WSW,256,0.0,12.0,38,0.00,,---,0.04,VWS V14.00,2013-04-25 23:01:00,
2013-04-25 18:06:00,45.3,21.8,30.14,WSW,241,3.0,7.0,39,0.00,,---,0.04,VWS V14.00,2013-04-25 23:06:00,
2013-04-25 18:11:00,45.2,21.7,30.14,WSW,254,7.0,12.0,39,0.00,,---,0.04,VWS V14.00,2013-04-25 23:11:00,
2013-04-25 18:16:00,45.0,22.1,30.13,WSW,252,2.0,12.0,40,0.00,,---,0.04,VWS V14.00,2013-04-25 23:16:00,
2013-04-25 18:21:00,45.0,22.7,30.13,SSW,210,2.0,5.0,41,0.00,,---,0.04,VWS V14.00,2013-04-25 23:21:00,
2013-04-25 18:26:00,45.1,23.4,30.14,WSW,240,3.0,6.0,42,0.00,,---,0.04,VWS V14.00,2013-04-25 23:26:00,
2013-04-25 18:31:00,45.2,22.9,30.14,SSW,213,3.0,6.0,41,0.00,,---,0.04,VWS V14.00,2013-04-25 23:31:00,
2013-04-25 18:36:00,45.0,23.3,30.14,SSE,156,2.0,11.0,42,0.00,,---,0.04,VWS V14.00,2013-04-25 23:36:00,
2013-04-25 18:41:00,44.8,23.7,30.14,South,182,0.0,11.0,43,0.00,,---,0.04,VWS V14.00,2013-04-25 23:41:00,
2013-04-25 18:46:00,44.7,23.0,30.14,South,191,3.0,11.0,42,0.00,,---,0.04,VWS V14.00,2013-04-25 23:46:00,
2013-04-25 18:51:00,44.6,22.9,30.14,SSW,202,3.0,7.0,42,0.00,,---,0.04,VWS V14.00,2013-04-25 23:51:00,
2013-04-25 18:56:00,44.4,23.9,30.14,SSE,158,0.0,7.0,44,0.00,,---,0.04,VWS V14.00,2013-04-25 23:56:00,
2013-04-25 19:01:00,44.0,24.6,30.14,SSE,164,2.0,8.0,46,0.00,,---,0.04,VWS V14.00,2013-04-26 00:01:00,
2013-04-25 19:06:00,43.5,25.1,30.14,SW,220,1.0,10.0,48,0.00,,---,0.04,VWS V14.00,2013-04-26 00:06:00,
2013-04-25 19:11:00,43.1,25.3,30.14,South,169,2.0,10.0,49,0.00,,---,0.04,VWS V14.00,2013-04-26 00:11:00,
2013-04-25 19:16:00,42.7,25.4,30.14,SSE,162,0.0,10.0,50,0.00,,---,0.04,VWS V14.00,2013-04-26 00:16:00,
2013-04-25 19:21:00,42.4,25.6,30.14,South,187,1.0,7.0,51,0.00,,---,0.04,VWS V14.00,2013-04-26 00:21:00,
2013-04-25 19:26:00,42.1,25.8,30.14,South,170,2.0,7.0,52,0.00,,---,0.04,VWS V14.00,2013-04-26 00:26:00,
2013-04-25 19:31:00,41.8,25.9,30.14,South,187,1.0,7.0,53,0.00,,---,0.04,VWS V14.00,2013-04-26 00:31:00,
2013-04-25 19:36:00,41.5,26.1,30.15,South,175,3.0,6.0,54,0.00,,---,0.04,VWS V14.00,2013-04-26 00:36:00,
2013-04-25 19:41:00,41.1,26.2,30.15,SSE,165,2.0,11.0,55,0.00,,---,0.04,VWS V14.00,2013-04-26 00:41:00,
2013-04-25 19:46:00,40.8,26.3,30.15,South,181,3.0,11.0,56,0.00,,---,0.04,VWS V14.00,2013-04-26 00:46:00,
2013-04-25 19:51:00,40.6,26.1,30.15,SSE,161,0.0,6.0,56,0.00,,---,0.04,VWS V14.00,2013-04-26 00:51:00,
2013-04-25 19:56:00,40.3,26.7,30.14,SSE,167,0.0,6.0,58,0.00,,---,0.04,VWS V14.00,2013-04-26 00:56:00,
2013-04-25 20:01:00,40.0,26.0,30.15,South,173,0.0,6.0,57,0.00,,---,0.04,VWS V14.00,2013-04-26 01:01:00,
2013-04-25 20:06:00,39.7,26.1,30.15,SSW,202,0.0,4.0,58,0.00,,---,0.04,VWS V14.00,2013-04-26 01:06:00,
2013-04-25 20:11:00,39.5,26.4,30.15,SSE,148,0.0,4.0,59,0.00,,---,0.04,VWS V14.00,2013-04-26 01:11:00,
2013-04-25 20:16:00,39.3,26.2,30.16,South,175,0.0,4.0,59,0.00,,---,0.04,VWS V14.00,2013-04-26 01:16:00,
2013-04-25 20:21:00,39.0,25.9,30.16,SSE,149,1.0,3.0,59,0.00,,---,0.04,VWS V14.00,2013-04-26 01:21:00,
2013-04-25 20:26:00,38.8,26.1,30.16,South,180,0.0,4.0,60,0.00,,---,0.04,VWS V14.00,2013-04-26 01:26:00,
2013-04-25 20:31:00,38.6,25.9,30.16,SSW,194,1.0,4.0,60,0.00,,---,0.04,VWS V14.00,2013-04-26 01:31:00,
2013-04-25 20:37:00,38.3,26.0,30.17,South,190,1.0,4.0,61,0.00,,---,0.04,VWS V14.00,2013-04-26 01:37:00,
2013-04-25 20:42:00,38.2,26.0,30.17,South,169,0.0,5.0,61,0.00,,---,0.04,VWS V14.00,2013-04-26 01:42:00,
2013-04-25 20:47:00,38.0,26.1,30.17,ESE,117,0.0,6.0,62,0.00,,---,0.04,VWS V14.00,2013-04-26 01:47:00,
2013-04-25 20:52:00,37.9,26.1,30.17,SSW,198,0.0,3.0,62,0.00,,---,0.04,VWS V14.00,2013-04-26 01:52:00,
2013-04-25 20:57:00,37.7,25.9,30.17,South,185,0.0,4.0,62,0.00,,---,0.04,VWS V14.00,2013-04-26 01:57:00,
2013-04-25 21:02:00,37.6,26.2,30.17,South,185,0.0,4.0,63,0.00,,---,0.04,VWS V14.00,2013-04-26 02:02:00,
2013-04-25 21:07:00,37.5,26.1,30.17,South,174,0.0,4.0,63,0.00,,---,0.04,VWS V14.00,2013-04-26 02:07:00,
2013-04-25 21:12:00,37.4,26.0,30.17,South,184,0.0,4.0,63,0.00,,---,0.04,VWS V14.00,2013-04-26 02:12:00,
2013-04-25 21:17:00,37.2,25.8,30.18,South,184,0.0,4.0,63,0.00,,---,0.04,VWS V14.00,2013-04-26 02:17:00,
2013-04-25 21:22:00,37.0,26.0,30.18,South,184,0.0,2.0,64,0.00,,---,0.04,VWS V14.00,2013-04-26 02:22:00,
2013-04-25 21:27:00,36.8,25.8,30.18,South,184,0.0,2.0,64,0.00,,---,0.04,VWS V14.00,2013-04-26 02:27:00,
2013-04-25 21:32:00,36.6,26.0,30.18,South,184,0.0,3.0,65,0.00,,---,0.04,VWS V14.00,2013-04-26 02:32:00,
2013-04-25 21:37:00,36.4,25.8,30.18,South,184,0.0,0.0,65,0.00,,---,0.04,VWS V14.00,2013-04-26 02:37:00,
2013-04-25 21:42:00,36.2,25.6,30.18,SE,136,2.0,6.0,65,0.00,,---,0.04,VWS V14.00,2013-04-26 02:42:00,
2013-04-25 21:47:00,36.2,26.0,30.18,SE,136,0.0,6.0,66,0.00,,---,0.04,VWS V14.00,2013-04-26 02:47:00,
2013-04-25 21:52:00,36.0,25.8,30.18,South,175,0.0,2.0,66,0.00,,---,0.04,VWS V14.00,2013-04-26 02:52:00,
2013-04-25 21:57:00,35.8,25.6,30.18,SSE,160,0.0,6.0,66,0.00,,---,0.04,VWS V14.00,2013-04-26 02:57:00,
2013-04-25 22:02:00,35.7,25.8,30.19,ESE,119,0.0,6.0,67,0.00,,---,0.04,VWS V14.00,2013-04-26 03:02:00,
2013-04-25 22:07:00,35.6,25.7,30.18,SSE,159,0.0,2.0,67,0.00,,---,0.04,VWS V14.00,2013-04-26 03:07:00,
2013-04-25 22:12:00,35.4,25.9,30.19,SSE,159,0.0,2.0,68,0.00,,---,0.04,VWS V14.00,2013-04-26 03:12:00,
2013-04-25 22:17:00,35.2,25.7,30.19,SSE,159,0.0,2.0,68,0.00,,---,0.04,VWS V14.00,2013-04-26 03:17:00,
2013-04-25 22:22:00,35.0,25.9,30.19,SSE,159,0.0,2.0,69,0.00,,---,0.04,VWS V14.00,2013-04-26 03:22:00,
2013-04-25 22:27:00,34.8,25.7,30.19,SSE,159,0.0,2.0,69,0.00,,---,0.04,VWS V14.00,2013-04-26 03:27:00,
2013-04-25 22:32:00,34.7,25.9,30.19,SSE,159,0.0,2.0,70,0.00,,---,0.04,VWS V14.00,2013-04-26 03:32:00,
2013-04-25 22:43:00,34.3,25.9,30.18,SSE,163,0.0,1.0,71,0.00,,---,0.04,VWS V14.00,2013-04-26 03:43:00,
2013-04-25 22:48:00,34.1,25.7,30.18,SSE,163,0.0,1.0,71,0.00,,---,0.04,VWS V14.00,2013-04-26 03:48:00,
2013-04-25 22:53:00,33.9,25.8,30.18,SSE,163,0.0,0.0,72,0.00,,---,0.04,VWS V14.00,2013-04-26 03:53:00,
2013-04-25 22:58:00,33.8,25.7,30.18,SSE,163,0.0,0.0,72,0.00,,---,0.04,VWS V14.00,2013-04-26 03:58:00,
2013-04-25 23:01:00,33.7,25.6,30.18,SSE,163,0.0,0.0,72,0.00,,---,0.04,VWS V14.00,2013-04-26 04:01:00,
2013-04-25 23:06:00,33.4,25.7,30.19,SSE,163,0.0,0.0,73,0.00,,---,0.04,VWS V14.00,2013-04-26 04:06:00,
2013-04-25 23:11:00,33.2,26.5,30.19,SSE,163,0.0,0.0,76,0.00,,---,0.04,VWS V14.00,2013-04-26 04:11:00,
2013-04-25 23:16:00,33.0,26.6,30.19,SSE,163,0.0,0.0,77,0.00,,---,0.04,VWS V14.00,2013-04-26 04:16:00,
2013-04-25 23:21:00,32.6,26.2,30.19,SSE,163,0.0,0.0,77,0.00,,---,0.04,VWS V14.00,2013-04-26 04:21:00,
2013-04-25 23:26:00,32.4,26.0,30.19,SSE,163,0.0,0.0,77,0.00,,---,0.04,VWS V14.00,2013-04-26 04:26:00,
2013-04-25 23:31:00,32.1,26.3,30.19,SSE,163,0.0,0.0,79,0.00,,---,0.04,VWS V14.00,2013-04-26 04:31:00,
2013-04-25 23:36:00,31.9,26.1,30.19,SSE,163,0.0,0.0,79,0.00,,---,0.04,VWS V14.00,2013-04-26 04:36:00,
2013-04-25 23:41:00,31.6,26.1,30.19,SSE,163,0.0,0.0,80,0.00,,---,0.04,VWS V14.00,2013-04-26 04:41:00,
2013-04-25 23:46:00,31.3,25.9,30.19,SSE,163,0.0,0.0,80,0.00,,---,0.04,VWS V14.00,2013-04-26 04:46:00,
2013-04-25 23:51:00,31.0,25.6,30.19,SSE,163,0.0,0.0,80,0.00,,---,0.04,VWS V14.00,2013-04-26 04:51:00,
2013-04-25 23:56:00,30.7,25.6,30.19,SSE,163,0.0,0.0,81,0.00,,---,0.04,VWS V14.00,2013-04-26 04:56:00,